Location: Newark
(44.1667°N, 8.2500°E)
Time: 08:28:24
(UTC+00:00)

Tiros 1 - All Passes

Search period start: 14 December 2019 00:00
Search period end: 24 December 2019 00:00
Orbit: 630 x 664 km, 48.4° (Epoch: 13 December)

Date Brightness Start Highest point End Pass type
(mag) Time Alt. Az. Time Alt. Az. Time Alt. Az.
14 Dec - 02:25:38 10° SE 02:26:28 10° SE 02:27:16 10° ESE visible
14 Dec - 04:03:16 10° SW 04:07:49 48° SSE 04:12:21 10° ENE visible
14 Dec - 05:45:18 10° W 05:50:00 63° NNW 05:54:39 10° ENE visible
14 Dec - 07:28:03 10° WNW 07:32:39 51° N 07:37:12 10° E daylight
14 Dec - 09:10:25 10° WNW 09:15:06 83° SSW 09:19:44 10° ESE daylight
14 Dec - 10:53:16 10° W 10:56:49 22° SW 11:00:21 10° S daylight
15 Dec - 02:48:18 10° S 02:52:02 23° SE 02:55:44 10° E visible
15 Dec - 04:29:03 10° WSW 04:33:48 85° SSE 04:38:31 10° ENE visible
15 Dec - 06:11:40 10° W 06:16:16 51° N 06:20:51 10° ENE visible
15 Dec - 07:54:15 10° WNW 07:58:55 63° NNE 08:03:32 10° E daylight
15 Dec - 09:36:36 10° WNW 09:41:04 46° SW 09:45:29 10° SE daylight
16 Dec - 03:13:16 10° SW 03:17:48 45° SE 03:22:18 10° ENE visible
16 Dec - 04:55:13 10° W 04:59:56 65° NNW 05:04:37 10° ENE visible
16 Dec - 06:37:59 10° WNW 06:42:35 51° N 06:47:09 10° E daylight
16 Dec - 08:20:22 10° WNW 08:25:04 87° SSW 08:29:43 10° ESE daylight
16 Dec - 10:03:08 10° W 10:06:50 24° SW 10:10:30 10° S daylight
17 Dec - 01:58:25 10° S 02:02:01 21° SE 02:05:37 10° E night (unlit)
17 Dec - 03:38:59 10° WSW 03:43:45 81° SSE 03:48:29 10° ENE visible
17 Dec - 05:21:34 10° W 05:26:12 52° N 05:30:48 10° ENE visible
17 Dec - 07:04:11 10° WNW 07:08:52 61° NNE 07:13:29 10° E daylight
17 Dec - 08:46:32 10° WNW 08:51:03 50° SSW 08:55:31 10° SE daylight
17 Dec - 10:31:23 10° WSW 10:32:24 11° SW 10:33:24 10° SW daylight
18 Dec - 02:23:16 10° SW 02:27:46 42° SE 02:32:14 10° ENE visible
18 Dec - 04:05:08 10° W 04:09:53 67° NNW 04:14:35 10° ENE visible
18 Dec - 05:47:54 10° WNW 05:52:31 50° N 05:57:05 10° E visible
18 Dec - 07:30:18 10° WNW 07:35:01 89° N 07:39:41 10° ESE daylight
18 Dec - 09:13:00 10° W 09:16:50 25° SW 09:20:38 10° SSE daylight
19 Dec - 01:08:34 10° S 01:12:01 20° SE 01:15:28 10° E night (unlit)
19 Dec - 02:48:57 10° WSW 02:53:42 76° SSE 02:58:26 10° ENE visible
19 Dec - 04:31:29 10° W 04:36:08 53° N 04:40:45 10° ENE visible
19 Dec - 06:14:07 10° WNW 06:18:48 60° NNE 06:23:25 10° E visible
19 Dec - 07:56:27 10° WNW 08:01:01 53° SSW 08:05:33 10° SE daylight
19 Dec - 09:40:45 10° WSW 09:42:25 12° SW 09:44:05 10° SSW daylight
20 Dec - 01:33:18 10° SSW 01:37:45 39° SE 01:42:10 10° ENE night (unlit)
20 Dec - 03:15:03 10° WSW 03:19:49 70° NNW 03:24:33 10° ENE visible
20 Dec - 04:57:49 10° WNW 05:02:27 50° N 05:07:02 10° ENE visible
20 Dec - 06:40:15 10° WNW 06:44:59 85° NNE 06:49:40 10° ESE daylight
20 Dec - 08:22:52 10° W 08:26:51 27° SW 08:30:45 10° SSE daylight
21 Dec - 00:18:43 10° S 00:22:01 19° SE 00:25:18 10° E night (unlit)
21 Dec - 01:58:54 10° SW 02:03:40 72° SSE 02:08:24 10° ENE night (unlit)
21 Dec - 03:41:23 10° W 03:46:04 54° N 03:50:42 10° ENE visible
21 Dec - 05:24:03 10° WNW 05:28:44 58° NNE 05:33:22 10° E visible
21 Dec - 07:06:23 10° WNW 07:11:00 57° SSW 07:15:33 10° SE daylight
21 Dec - 08:50:20 10° WSW 08:52:26 13° SW 08:54:33 10° SSW daylight
22 Dec - 00:43:20 10° SSW 00:47:44 37° SE 00:52:06 10° ENE night (unlit)
22 Dec - 02:24:58 10° WSW 02:29:45 73° NNW 02:34:31 10° ENE visible
22 Dec - 04:07:44 10° WNW 04:12:22 50° N 04:16:58 10° ENE visible
22 Dec - 05:50:11 10° WNW 05:54:56 82° NNE 05:59:37 10° ESE visible
22 Dec - 07:32:46 10° W 07:36:50 29° SW 07:40:51 10° SSE daylight
22 Dec - 23:28:55 10° S 23:32:01 17° SE 23:35:07 10° E night (unlit)
23 Dec - 01:08:51 10° SW 01:13:37 68° SSE 01:18:22 10° ENE night (unlit)
23 Dec - 02:51:18 10° W 02:55:59 55° N 03:00:40 10° ENE visible
23 Dec - 04:33:59 10° WNW 04:38:40 57° N 04:43:18 10° E visible
23 Dec - 06:16:19 10° WNW 06:20:59 61° SSW 06:25:34 10° SE visible
23 Dec - 08:00:00 10° W 08:02:28 14° SW 08:04:55 10° SSW daylight
